Regional Weather Roundup
Issued by NWS

Home | Current Version | Previous Version | Graphics & Text | Print | Product List | Glossary On
Versions: 1 2 3 4 5 6 7 8 9 10 11 12 13 14 15 16 17 18 19 20 21 22 23 24 25 26 27 28 29 30 31 32 33 34 35 36 37 38 39 40 41 42 43 44 45 46 47 48 49 50
000
ASUS45 KBOI 121410
RWRID

IDAHO REGIONAL WEATHER ROUNDUP
NATIONAL WEATHER SERVICE BOISE ID
700 AM MST FRI FEB 12 2016

NOTE: "FAIR" INDICATES FEW OR NO CLOUDS BELOW 12000 FEET
WITH NO SIGNIFICANT WEATHER AND/OR OBSTRUCTIONS TO VISIBILITY

IDZ012-014-121500-
SOUTHWEST IDAHO


CITY           SKY/WX    TMP DP  RH WIND       PRES   REMARKS
BOISE          CLEAR     31  27  85 CALM      30.33S
CALDWELL       PTCLDY    27  25  93 CALM      30.36R FOG
MOUNTAIN HOME  CLEAR     30  27  88 SE8       30.33R WCI  22
$$

IDZ016-017-121500-
SOUTHCENTRAL IDAHO


CITY           SKY/WX    TMP DP  RH WIND       PRES   REMARKS
BURLEY         PTCLDY    27  25  92 CALM      30.30S
JEROME         PTCLDY    27  21  78 NE17      30.31R WCI  14
TWIN FALLS     PTCLDY    27  25  92 SE5       30.30F WCI  22
$$

IDZ019>023-121500-
SOUTHEAST IDAHO


CITY           SKY/WX    TMP DP  RH WIND       PRES   REMARKS
IDAHO FALLS    CLOUDY    17  14  88 NE3       30.36S
POCATELLO      CLOUDY    23  19  85 E6        30.36S WCI  16
REXBURG        CLOUDY    22  21  96 CALM      30.35R FOG
$$

IDZ006-010-011-018-031-032-121500-
CENTRAL IDAHO MOUNTAINS


CITY           SKY/WX    TMP DP  RH WIND       PRES   REMARKS
MCCALL         PTCLDY    23  21  92 CALM      30.28S FOG
HAILEY         PTCLDY    30  27  86 W7        30.33S WCI  23
STANLEY          N/A     20  15  81 CALM      30.35R
SALMON         CLOUDY    19  16  86 SE3       30.34S
CHALLIS        FOG       18  16  92 S3        30.32S VSB 3/4
$$

IDZ002-004-006-007-026-121500-
NORTHERN IDAHO


CITY           SKY/WX    TMP DP  RH WIND       PRES   REMARKS
LEWISTON       MOCLDY    42  37  82 SE6       30.20R
LOWELL           N/A     40  38  93 N3        30.27S
COEUR D`ALENE  CLOUDY    37  36  93 NE7       30.18F WCI  32
MULLAN PASS    FOG       35  34  96 S7        30.17F VSB 1/4 WCI  29
$$



USA.gov is the U.S. government's official web portal to all federal, state and local government web resources and services.